Regional Weather Roundup
Issued by NWS Portland, ME

Current Version | Previous Version | Text Only | Print | Product List | Glossary On
Versions: 1 2 3 4 5 6 7 8 9 10 11 12 13 14 15 16 17 18 19 20 21 22 23 24 25 26 27 28 29 30 31 32 33 34 35 36 37 38 39 40 41 42 43 44 45 46 47 48 49 50
882 ASUS41 KGYX 220310 RWRGYX WEATHER ROUNDUP FOR MAINE AND NEW HAMPSHIRE NATIONAL WEATHER SERVICE GRAY ME 1100 PM EDT SAT APR 21 2018 MEZ002-005-006-010-012-015-018-020-021-024-026-027-029-220400- MAINE CITY SKY/WX TMP DP RH WIND PRES REMARKS PORTLAND FAIR 46 21 37 NW3 30.28S SANFORD FAIR 35 25 66 VRB3 30.29S BAR HARBOR FAIR 38 23 55 W5 30.24R WISCASSET FAIR 37 26 64 CALM 30.28S ROCKLAND FAIR 37 25 61 W3 30.26R FRYEBURG FAIR 33 26 75 SW3 30.27F LEWISTONAUBURN FAIR 36 23 59 CALM 30.27F AUGUSTA MOCLDY 42 21 43 W3 30.26S WATERVILLE FAIR 39 22 50 W5 30.23S BANGOR FAIR 35 23 61 W5 30.23S GREENVILLE N/A 36 22 56 NW8 30.17R MILLINOCKET FAIR 35 23 61 NW3 30.21S HOULTON FAIR 30 24 78 CALM 30.16R PRESQUE ISLE FAIR 32 24 72 CALM 30.17S FRENCHVILLE MOCLDY 37 19 48 NW6 30.14S CARIBOU FAIR 35 20 54 W5 30.15S $$ NHZ002-005-008-009-011-012-014-220400- NEW HAMPSHIRE CITY SKY/WX TMP DP RH WIND PRES REMARKS PORTSMOUTH CLEAR 46 18 32 N6 30.28R ROCHESTER FAIR 44 21 40 W5 30.28S NASHUA FAIR 40 26 57 NW5 30.31R MANCHESTER FAIR 46 20 35 CALM 30.29R CONCORD FAIR 39 20 46 CALM 30.30R LACONIA FAIR 36 23 59 CALM 30.29S PLYMOUTH FAIR 32 28 83 W3 30.29S BERLIN FAIR 28 24 85 CALM 30.25S WHITEFIELD FAIR 29 25 85 CALM 30.27S JAFFREY FAIR 32 27 81 CALM 30.29R KEENE FAIR 33 22 63 CALM 30.31R LEBANON FAIR 32 23 69 CALM 30.30S MT WASHINGTON PTCLDY 18 14 86 W59 N/A WCI -7 $$ VTZ005-007-008-220400- VERMONT CITY SKY/WX TMP DP RH WIND PRES REMARKS ST JOHNSBURY N/A 33 25 72 MISG 30.27S MONTPELIER FAIR 35 20 54 CALM 30.32S BURLINGTON FAIR 44 17 33 W5 30.31S $$ MAZ007-012-024-CTZ003-RIZ002-NYZ038-NYZ072-220400- SOUTHERN NEW ENGLAND AND NY CITY SKY/WX TMP DP RH WIND PRES REMARKS BOSTON FAIR 46 32 58 E3 30.30R WORCESTER FAIR 46 15 28 NW7 30.29R NANTUCKET FAIR 41 38 89 SW6 30.28F PROVIDENCE FAIR 51 23 33 NW8 30.29R HARTFORD FAIR 48 19 31 NW13 30.32R ALBANY FAIR 45 19 35 W10 30.35R NEW YORK CITY FAIR 55 23 28 NW9 30.33R $$ ANZ081-ANZ082-ANZ150-NHZ014-MEZ023>029-220400- COASTAL MARINE OBSERVATIONS STATION/POSITION TIME TEMP WIND PRES WAVE AIR SEA DIR/SP/G HT/PER (UTC) (F) (DEG/KT/KT) (MB) (FT/S) MOUNT DESERT ROC 0300 43 280/ 13/ 14 1023.9R MATINICUS ROCK 0200 45 320/ 13/ 13 1023.9R ISLE OF SHOALS 0200 48 10/ 12/ 13 1025.1R JEFFREYS LEDGE 0236 42 N/A 2/10 CASHES LEDGE BUO 0250 41 41 1025.1R 2/ 7 $$ .............KEY.............. WCI - WIND CHILL TC - TEMPERATURE IN CELSIUS VSB - VISIBILITY IN MILES HX - HEAT INDEX FAIR- INDICATES FEW OR NO CLOUDS BELOW 12,000 FT, WITH NO SIGNIFICANT WEATHER AND/OR OBSTRUCTIONS TO VISIBILITY.

USA.gov is the U.S. government's official web portal to all federal, state and local government web resources and services.